| time (UTC) | temp C | wind direction | speed KPH | gust KPH | rain 1hr cm | rain 24hr cm | rain mn cm | humidity % | barometer mb |
| 20260508075120 | 0 | 56 | 1.6 | 3.2 | 0.00 | 0.00 | 0.00 | 98 | 1001.0 |
| 20260508074529 | 0 | 51 | 1.6 | 1.6 | 0.00 | 0.00 | 0.00 | 98 | 1000.6 |
| 20260508073327 | 0 | 56 | 1.6 | 1.6 | 0.00 | 0.00 | 0.00 | 98 | 1000.6 |
| 20260508072733 | 1 | 44 | 1.6 | 1.6 | 0.00 | 0.00 | 0.00 | 97 | 1000.6 |
| 20260508072115 | 1 | 42 | 0.0 | 1.6 | 0.00 | 0.00 | 0.00 | 97 | 1000.3 |
| 20260508071537 | 1 | 38 | 0.0 | 0.0 | 0.00 | 0.00 | 0.00 | 97 | 1000.6 |
| 20260508070950 | 1 | 54 | 1.6 | 1.6 | 0.00 | 0.00 | 0.00 | 97 | 1000.6 |
| 20260508070338 | 1 | 51 | 1.6 | 1.6 | 0.00 | 0.00 | 0.00 | 97 | 1001.0 |
| 20260508065738 | 1 | 42 | 1.6 | 1.6 | 0.00 | 0.00 | 0.00 | 97 | 1000.6 |
| 20260508065133 | 1 | 45 | 1.6 | 1.6 | 0.00 | 0.00 | 0.00 | 97 | 1001.0 |
| 20260508064520 | 1 | 47 | 1.6 | 1.6 | 0.00 | 0.00 | 0.00 | 96 | 1000.6 |
| 20260508063925 | 1 | 47 | 1.6 | 1.6 | 0.00 | 0.00 | 0.00 | 96 | 1000.6 |
| 20260508063318 | 1 | 57 | 1.6 | 1.6 | 0.00 | 0.00 | 0.00 | 96 | 1000.6 |
| 20260508062742 | 1 | 44 | 1.6 | 1.6 | 0.00 | 0.00 | 0.00 | 96 | 1000.6 |
| 20260508062146 | 1 | 24 | 0.0 | 1.6 | 0.00 | 0.00 | 0.00 | 96 | 1000.3 |
| 20260508061530 | 2 | 29 | 0.0 | 0.0 | 0.00 | 0.00 | 0.00 | 95 | 1000.6 |
| 20260508060909 | 2 | 42 | 1.6 | 1.6 | 0.00 | 0.00 | 0.00 | 94 | 1000.6 |
| 20260508060341 | 2 | 35 | 0.0 | 0.0 | 0.00 | 0.00 | 0.00 | 94 | 1000.6 |
| 20260508055751 | 2 | 51 | 1.6 | 1.6 | 0.00 | 0.00 | 0.00 | 94 | 1000.6 |
| 20260508055141 | 2 | 56 | 1.6 | 1.6 | 0.00 | 0.00 | 0.00 | 94 | 1001.0 |
| 20260508054544 | 2 | 52 | 1.6 | 1.6 | 0.00 | 0.00 | 0.00 | 93 | 1000.6 |
| 20260508052737 | 2 | 44 | 1.6 | 1.6 | 0.00 | 0.00 | 0.00 | 92 | 1000.6 |
| 20260508052132 | 2 | 38 | 0.0 | 1.6 | 0.00 | 0.00 | 0.00 | 92 | 1000.6 |
| 20260508051526 | 2 | 38 | 0.0 | 0.0 | 0.00 | 0.00 | 0.00 | 91 | 1000.6 |
| 20260508050945 | 3 | 41 | 0.0 | 1.6 | 0.00 | 0.00 | 0.00 | 90 | 1000.6 |
| 20260508050309 | 3 | 51 | 1.6 | 1.6 | 0.00 | 0.00 | 0.00 | 89 | 1001.0 |
| 20260508045724 | 3 | 54 | 1.6 | 1.6 | 0.00 | 0.00 | 0.00 | 88 | 1000.6 |
| 20260508045128 | 3 | 41 | 0.0 | 0.0 | 0.00 | 0.00 | 0.00 | 89 | 1001.0 |
| 20260508044542 | 3 | 55 | 1.6 | 1.6 | 0.00 | 0.00 | 0.00 | 86 | 1001.0 |
| 20260508043936 | 3 | 58 | 1.6 | 1.6 | 0.00 | 0.00 | 0.00 | 84 | 1001.0 |
| 20260508043347 | 3 | 49 | 1.6 | 1.6 | 0.00 | 0.00 | 0.00 | 85 | 1000.6 |
| 20260508042723 | 3 | 40 | 0.0 | 0.0 | 0.00 | 0.00 | 0.00 | 84 | 1000.6 |
| 20260508042141 | 4 | 40 | 0.0 | 0.0 | 0.00 | 0.00 | 0.00 | 84 | 1001.0 |
| 20260508041532 | 5 | 40 | 0.0 | 0.0 | 0.00 | 0.00 | 0.00 | 83 | 1000.6 |
| 20260508040318 | 5 | 40 | 0.0 | 1.6 | 0.00 | 0.00 | 0.00 | 79 | 1000.6 |
| 20260508035120 | 5 | 40 | 1.6 | 1.6 | 0.00 | 0.00 | 0.23 | 78 | 1000.6 |
| 20260508034526 | 5 | 40 | 0.0 | 0.0 | 0.00 | 0.00 | 0.23 | 77 | 1000.3 |
| 20260508033916 | 5 | 40 | 0.0 | 1.6 | 0.00 | 0.00 | 0.23 | 75 | 1000.3 |
| 20260508033321 | 5 | 40 | 0.0 | 0.0 | 0.00 | 0.00 | 0.23 | 75 | 1000.3 |
| 20260508032734 | 5 | 40 | 0.0 | 0.0 | 0.00 | 0.00 | 0.23 | 77 | 1000.0 |
| 20260508032146 | 5 | 40 | 0.0 | 1.6 | 0.00 | 0.00 | 0.23 | 80 | 1000.0 |
| 20260508031526 | 5 | 39 | 0.0 | 0.0 | 0.00 | 0.00 | 0.23 | 82 | 1000.0 |
| 20260508030931 | 5 | 40 | 0.0 | 0.0 | 0.00 | 0.00 | 0.23 | 79 | 1000.0 |
| 20260508030311 | 5 | 39 | 0.0 | 0.0 | 0.00 | 0.00 | 0.23 | 79 | 1000.3 |
| 20260508025719 | 5 | 40 | 0.0 | 0.0 | 0.00 | 0.00 | 0.23 | 80 | 1000.3 |
| 20260508025114 | 6 | 40 | 0.0 | 0.0 | 0.00 | 0.00 | 0.23 | 79 | 1000.0 |
| 20260508024525 | 6 | 40 | 0.0 | 0.0 | 0.00 | 0.00 | 0.23 | 79 | 1000.0 |
| 20260508023946 | 6 | 40 | 0.0 | 0.0 | 0.00 | 0.00 | 0.23 | 82 | 1000.0 |
| 20260508023341 | 6 | 40 | 0.0 | 0.0 | 0.00 | 0.00 | 0.23 | 80 | 1000.0 |
| 20260508022723 | 6 | 40 | 0.0 | 0.0 | 0.00 | 0.00 | 0.23 | 78 | 1000.0 |
| 20260508021515 | 6 | 40 | 0.0 | 0.0 | 0.00 | 0.00 | 0.23 | 80 | 999.6 |
| 20260508020945 | 6 | 40 | 0.0 | 0.0 | 0.00 | 0.00 | 0.23 | 81 | 999.6 |
| 20260508020349 | 6 | 39 | 0.0 | 0.0 | 0.00 | 0.00 | 0.23 | 77 | 999.6 |
| 20260508015738 | 6 | 39 | 0.0 | 0.0 | 0.00 | 0.00 | 0.23 | 74 | 999.6 |
| 20260508015145 | 6 | 47 | 1.6 | 1.6 | 0.00 | 0.00 | 0.23 | 78 | 999.3 |
| 20260508014517 | 7 | 36 | 0.0 | 0.0 | 0.00 | 0.00 | 0.23 | 75 | 999.3 |
| 20260508012725 | 7 | 36 | 0.0 | 0.0 | 0.00 | 0.00 | 0.23 | 75 | 999.3 |
| 20260508011528 | 7 | 31 | 0.0 | 0.0 | 0.00 | 0.00 | 0.23 | 76 | 998.9 |
| 20260508010935 | 7 | 39 | 1.6 | 1.6 | 0.00 | 0.00 | 0.23 | 76 | 998.9 |
| 20260508010349 | 7 | 35 | 0.0 | 0.0 | 0.00 | 0.00 | 0.23 | 75 | 998.6 |
| 20260508005736 | 7 | 33 | 0.0 | 0.0 | 0.00 | 0.00 | 0.23 | 73 | 998.9 |
| 20260508003908 | 7 | 32 | 0.0 | 0.0 | 0.00 | 0.00 | 0.23 | 75 | 998.6 |
| 20260508003340 | 8 | 32 | 0.0 | 1.6 | 0.00 | 0.00 | 0.23 | 73 | 998.9 |
| 20260508002734 | 8 | 31 | 0.0 | 0.0 | 0.00 | 0.00 | 0.23 | 72 | 998.6 |
| 20260508002110 | 8 | 32 | 0.0 | 0.0 | 0.00 | 0.00 | 0.23 | 72 | 998.6 |
| 20260508001532 | 9 | 32 | 0.0 | 0.0 | 0.00 | 0.00 | 0.23 | 71 | 998.6 |
| 20260508000949 | 9 | 37 | 0.0 | 1.6 | 0.00 | 0.00 | 0.23 | 64 | 998.6 |
| 20260508000335 | 10 | 22 | 0.0 | 0.0 | 0.00 | 0.00 | 0.23 | 64 | 998.3 |
| 20260507235747 | 10 | 29 | 0.0 | 1.6 | 0.00 | 0.00 | 0.23 | 63 | 998.3 |
| 20260507235119 | 10 | 347 | 3.2 | 3.2 | 0.00 | 0.00 | 0.23 | 57 | 998.3 |
| 20260507234551 | 10 | 342 | 1.6 | 3.2 | 0.00 | 0.00 | 0.23 | 59 | 998.3 |
| 20260507233938 | 11 | 7 | 3.2 | 3.2 | 0.00 | 0.00 | 0.23 | 58 | 998.3 |
| 20260507233347 | 11 | 249 | 3.2 | 4.8 | 0.00 | 0.00 | 0.23 | 59 | 998.3 |
| 20260507231535 | 11 | 17 | 1.6 | 1.6 | 0.00 | 0.00 | 0.23 | 56 | 998.3 |
| 20260507225744 | 12 | 306 | 3.2 | 4.8 | 0.00 | 0.00 | 0.23 | 56 | 997.9 |
| 20260507225120 | 12 | 21 | 1.6 | 1.6 | 0.00 | 0.00 | 0.23 | 57 | 997.6 |
| 20260507224527 | 11 | 305 | 6.4 | 12.9 | 0.00 | 0.00 | 0.23 | 61 | 997.9 |
| 20260507223918 | 12 | 293 | 4.8 | 4.8 | 0.00 | 0.00 | 0.23 | 58 | 997.6 |
| 20260507223338 | 12 | 330 | 3.2 | 3.2 | 0.00 | 0.00 | 0.23 | 56 | 997.9 |
| 20260507222719 | 12 | 332 | 1.6 | 3.2 | 0.00 | 0.00 | 0.23 | 60 | 997.9 |
| 20260507221516 | 11 | 8 | 1.6 | 1.6 | 0.00 | 0.00 | 0.23 | 60 | 997.6 |
| 20260507220312 | 11 | 17 | 1.6 | 1.6 | 0.00 | 0.00 | 0.23 | 62 | 997.2 |
| 20260507215738 | 11 | 333 | 1.6 | 1.6 | 0.00 | 0.00 | 0.23 | 60 | 997.2 |
| 20260507215144 | 12 | 11 | 0.0 | 1.6 | 0.00 | 0.00 | 0.23 | 61 | 997.6 |
| 20260507213944 | 12 | 258 | 3.2 | 4.8 | 0.00 | 0.00 | 0.23 | 58 | 997.2 |
| 20260507212737 | 13 | 310 | 3.2 | 4.8 | 0.00 | 0.00 | 0.23 | 55 | 997.2 |
| 20260507211532 | 14 | 237 | 4.8 | 4.8 | 0.00 | 0.00 | 0.23 | 51 | 996.9 |
| 20260507210928 | 13 | 333 | 1.6 | 1.6 | 0.00 | 0.00 | 0.23 | 60 | 996.6 |
| 20260507210344 | 13 | 36 | 1.6 | 3.2 | 0.00 | 0.00 | 0.23 | 57 | 996.6 |
| 20260507204547 | 16 | 308 | 3.2 | 3.2 | 0.00 | 0.00 | 0.23 | 53 | 996.6 |
| 20260507202737 | 13 | 296 | 1.6 | 3.2 | 0.00 | 0.00 | 0.23 | 57 | 996.6 |
| 20260507202152 | 12 | 355 | 1.6 | 1.6 | 0.00 | 0.00 | 0.23 | 63 | 996.9 |
| 20260507201538 | 12 | 255 | 3.2 | 4.8 | 0.00 | 0.00 | 0.23 | 62 | 996.9 |
| 20260507200938 | 12 | 284 | 3.2 | 4.8 | 0.00 | 0.00 | 0.23 | 67 | 997.2 |
| 20260507195752 | 12 | 334 | 3.2 | 3.2 | 0.00 | 0.00 | 0.23 | 65 | 997.2 |
| 20260507195151 | 13 | 6 | 1.6 | 1.6 | 0.00 | 0.00 | 0.23 | 62 | 996.9 |
| 20260507194514 | 14 | 165 | 1.6 | 3.2 | 0.00 | 0.00 | 0.23 | 60 | 997.2 |
| 20260507193951 | 13 | 304 | 6.4 | 9.7 | 0.00 | 0.00 | 0.23 | 56 | 997.2 |
| 20260507192732 | 12 | 342 | 4.8 | 6.4 | 0.00 | 0.00 | 0.23 | 58 | 997.2 |
| 20260507192146 | 13 | 19 | 0.0 | 0.0 | 0.00 | 0.00 | 0.23 | 60 | 997.2 |
| 20260507191535 | 13 | 313 | 3.2 | 3.2 | 0.00 | 0.00 | 0.23 | 64 | 997.9 |
| 20260507190936 | 13 | 315 | 6.4 | 9.7 | 0.00 | 0.00 | 0.23 | 59 | 997.6 |
| 20260507185724 | 14 | 284 | 3.2 | 4.8 | 0.00 | 0.00 | 0.23 | 62 | 997.6 |
| 20260507185150 | 14 | 34 | 1.6 | 1.6 | 0.00 | 0.00 | 0.23 | 59 | 997.6 |
| 20260507184549 | 13 | 272 | 4.8 | 4.8 | 0.00 | 0.00 | 0.23 | 59 | 997.2 |
| 20260507183951 | 13 | 236 | 3.2 | 3.2 | 0.00 | 0.00 | 0.23 | 64 | 997.6 |
| 20260507183308 | 12 | 312 | 6.4 | 6.4 | 0.00 | 0.00 | 0.23 | 61 | 997.9 |
| 20260507182714 | 12 | 20 | 0.0 | 0.0 | 0.00 | 0.00 | 0.23 | 66 | 997.6 |
| 20260507182150 | 12 | 39 | 1.6 | 1.6 | 0.00 | 0.00 | 0.23 | 68 | 997.6 |
| 20260507181510 | 12 | 30 | 0.0 | 1.6 | 0.00 | 0.00 | 0.23 | 66 | 997.6 |
| 20260507180928 | 12 | 340 | 3.2 | 3.2 | 0.00 | 0.00 | 0.23 | 65 | 997.9 |
| 20260507180324 | 12 | 353 | 1.6 | 1.6 | 0.00 | 0.00 | 0.23 | 68 | 997.9 |
| 20260507174520 | 11 | 29 | 0.0 | 0.0 | 0.00 | 0.00 | 0.23 | 69 | 997.6 |
| 20260507173945 | 11 | 303 | 3.2 | 3.2 | 0.00 | 0.00 | 0.23 | 68 | 997.6 |
| 20260507172732 | 10 | 46 | 1.6 | 1.6 | 0.00 | 0.00 | 0.23 | 68 | 997.9 |
| 20260507172129 | 10 | 27 | 0.0 | 0.0 | 0.00 | 0.00 | 0.23 | 71 | 998.3 |
| 20260507170911 | 11 | 50 | 0.0 | 1.6 | 0.00 | 0.00 | 0.23 | 68 | 998.3 |
| 20260507170321 | 11 | 33 | 1.6 | 1.6 | 0.00 | 0.00 | 0.23 | 69 | 998.3 |
| 20260507165750 | 11 | 16 | 1.6 | 1.6 | 0.00 | 0.00 | 0.23 | 68 | 998.3 |
| 20260507165135 | 11 | 45 | 0.0 | 1.6 | 0.00 | 0.00 | 0.23 | 66 | 998.6 |
| 20260507163923 | 11 | 298 | 1.6 | 3.2 | 0.00 | 0.00 | 0.23 | 67 | 998.6 |
| 20260507162722 | 12 | 298 | 3.2 | 3.2 | 0.00 | 0.00 | 0.23 | 70 | 998.3 |
| 20260507162152 | 11 | 29 | 0.0 | 0.0 | 0.00 | 0.00 | 0.23 | 71 | 998.3 |
| 20260507161555 | 11 | 18 | 3.2 | 3.2 | 0.00 | 0.00 | 0.23 | 67 | 998.3 |
| 20260507160923 | 11 | 48 | 1.6 | 1.6 | 0.00 | 0.00 | 0.23 | 72 | 998.3 |
| 20260507160346 | 11 | 224 | 3.2 | 3.2 | 0.00 | 0.00 | 0.23 | 68 | 998.6 |
| 20260507155731 | 10 | 251 | 3.2 | 4.8 | 0.00 | 0.00 | 0.23 | 69 | 998.9 |
| 20260507155123 | 10 | 304 | 3.2 | 3.2 | 0.00 | 0.00 | 0.23 | 71 | 998.6 |
| 20260507154519 | 10 | 30 | 0.0 | 0.0 | 0.00 | 0.00 | 0.23 | 75 | 998.9 |
| 20260507153911 | 10 | 92 | 1.6 | 1.6 | 0.00 | 0.00 | 0.23 | 73 | 998.9 |
| 20260507153315 | 9 | 61 | 3.2 | 3.2 | 0.00 | 0.00 | 0.23 | 74 | 998.6 |
| 20260507152750 | 9 | 30 | 0.0 | 0.0 | 0.00 | 0.00 | 0.23 | 78 | 998.6 |
| 20260507151534 | 9 | 329 | 1.6 | 3.2 | 0.00 | 0.00 | 0.23 | 75 | 998.9 |
| 20260507150347 | 8 | 2 | 1.6 | 1.6 | 0.00 | 0.00 | 0.23 | 79 | 998.6 |
| 20260507145715 | 8 | 204 | 0.0 | 0.0 | 0.00 | 0.00 | 0.23 | 82 | 998.9 |
| 20260507145111 | 8 | 16 | 0.0 | 0.0 | 0.00 | 0.00 | 0.23 | 88 | 998.9 |
| 20260507144515 | 7 | 315 | 1.6 | 3.2 | 0.00 | 0.00 | 0.23 | 90 | 998.9 |
| 20260507143939 | 7 | 346 | 0.0 | 0.0 | 0.00 | 0.00 | 0.23 | 94 | 999.3 |
| 20260507143320 | 7 | 358 | 0.0 | 1.6 | 0.00 | 0.00 | 0.23 | 99 | 998.9 |
| 20260507142123 | 7 | 354 | 0.0 | 0.0 | 0.00 | 0.00 | 0.23 | 99 | 999.3 |
| 20260507141517 | 7 | 347 | 0.0 | 0.0 | 0.00 | 0.00 | 0.23 | 99 | 998.9 |
| 20260507140926 | 7 | 346 | 1.6 | 1.6 | 0.00 | 0.00 | 0.23 | 99 | 999.3 |
| 20260507140342 | 7 | 4 | 0.0 | 0.0 | 0.00 | 0.00 | 0.23 | 99 | 999.3 |
| 20260507135143 | 7 | 349 | 0.0 | 1.6 | 0.00 | 0.00 | 0.23 | 99 | 999.6 |
| 20260507134519 | 6 | 9 | 1.6 | 1.6 | 0.00 | 0.00 | 0.23 | 99 | 999.3 |
| 20260507133319 | 6 | 357 | 1.6 | 1.6 | 0.00 | 0.00 | 0.23 | 99 | 999.3 |
| 20260507132743 | 6 | 344 | 1.6 | 1.6 | 0.00 | 0.00 | 0.23 | 99 | 999.3 |
| 20260507132122 | 7 | 337 | 0.0 | 1.6 | 0.00 | 0.00 | 0.23 | 99 | 999.6 |
| 20260507130911 | 6 | 354 | 1.6 | 1.6 | 0.00 | 0.00 | 0.23 | 99 | 999.3 |
| 20260507130311 | 6 | 358 | 0.0 | 0.0 | 0.00 | 0.00 | 0.23 | 99 | 999.3 |
| 20260507124550 | 6 | 4 | 0.0 | 0.0 | 0.00 | 0.00 | 0.23 | 99 | 999.6 |
| 20260507123943 | 6 | 0 | 1.6 | 1.6 | 0.00 | 0.00 | 0.23 | 99 | 999.6 |
| 20260507123343 | 6 | 11 | 0.0 | 0.0 | 0.00 | 0.00 | 0.23 | 99 | 1000.0 |
| 20260507122748 | 6 | 4 | 0.0 | 0.0 | 0.00 | 0.00 | 0.23 | 99 | 1000.0 |
| 20260507122127 | 6 | 4 | 1.6 | 1.6 | 0.00 | 0.00 | 0.23 | 99 | 999.6 |
| 20260507120340 | 6 | 3 | 0.0 | 0.0 | 0.00 | 0.00 | 0.23 | 99 | 999.6 |
| 20260507115712 | 6 | 2 | 0.0 | 0.0 | 0.00 | 0.00 | 0.23 | 99 | 999.6 |
| 20260507115146 | 6 | 2 | 0.0 | 1.6 | 0.00 | 0.00 | 0.23 | 99 | 999.6 |
| 20260507114527 | 6 | 10 | 0.0 | 0.0 | 0.00 | 0.00 | 0.23 | 99 | 999.6 |
| 20260507113916 | 6 | 11 | 0.0 | 0.0 | 0.00 | 0.00 | 0.23 | 99 | 999.3 |
| 20260507113326 | 6 | 11 | 0.0 | 0.0 | 0.00 | 0.00 | 0.23 | 99 | 999.6 |
| 20260507112752 | 6 | 12 | 0.0 | 0.0 | 0.00 | 0.00 | 0.23 | 99 | 999.3 |
| 20260507111513 | 6 | 16 | 0.0 | 0.0 | 0.00 | 0.00 | 0.23 | 99 | 998.9 |
| 20260507110940 | 6 | 17 | 0.0 | 0.0 | 0.00 | 0.00 | 0.23 | 99 | 998.9 |
| 20260507110320 | 6 | 17 | 0.0 | 1.6 | 0.00 | 0.00 | 0.23 | 99 | 998.9 |
| 20260507105717 | 6 | 19 | 0.0 | 0.0 | 0.00 | 0.00 | 0.23 | 99 | 998.9 |
| 20260507105143 | 6 | 14 | 0.0 | 0.0 | 0.00 | 0.00 | 0.23 | 99 | 998.9 |
| 20260507104546 | 6 | 16 | 0.0 | 0.0 | 0.00 | 0.00 | 0.23 | 99 | 998.9 |
| 20260507103320 | 6 | 16 | 0.0 | 0.0 | 0.00 | 0.00 | 0.23 | 99 | 998.6 |
| 20260507102729 | 6 | 16 | 0.0 | 0.0 | 0.00 | 0.00 | 0.23 | 99 | 998.6 |
| 20260507101525 | 6 | 17 | 0.0 | 0.0 | 0.00 | 0.00 | 0.23 | 99 | 998.9 |
| 20260507100912 | 6 | 17 | 0.0 | 0.0 | 0.00 | 0.00 | 0.23 | 99 | 998.6 |
| 20260507100332 | 6 | 17 | 0.0 | 0.0 | 0.00 | 0.00 | 0.23 | 99 | 998.9 |
| 20260507095740 | 6 | 17 | 0.0 | 0.0 | 0.00 | 0.00 | 0.23 | 99 | 998.6 |
| 20260507095110 | 6 | 19 | 0.0 | 0.0 | 0.00 | 0.00 | 0.23 | 99 | 998.9 |
| 20260507093930 | 6 | 18 | 0.0 | 0.0 | 0.00 | 0.00 | 0.23 | 99 | 998.9 |
| 20260507093344 | 6 | 9 | 0.0 | 0.0 | 0.00 | 0.00 | 0.23 | 99 | 998.9 |
| 20260507092744 | 6 | 9 | 0.0 | 0.0 | 0.00 | 0.00 | 0.23 | 99 | 998.6 |
| 20260507092130 | 6 | 8 | 0.0 | 0.0 | 0.00 | 0.00 | 0.23 | 99 | 998.9 |
| 20260507091510 | 6 | 20 | 0.0 | 0.0 | 0.00 | 0.00 | 0.23 | 99 | 998.6 |
| 20260507090939 | 6 | 12 | 0.0 | 1.6 | 0.00 | 0.00 | 0.23 | 99 | 998.6 |
| 20260507090318 | 6 | 10 | 0.0 | 1.6 | 0.00 | 0.00 | 0.23 | 99 | 998.6 |
| 20260507085715 | 6 | 7 | 0.0 | 1.6 | 0.00 | 0.00 | 0.23 | 99 | 998.6 |
| 20260507085109 | 6 | 21 | 0.0 | 0.0 | 0.00 | 0.00 | 0.23 | 99 | 998.3 |
| 20260507084541 | 6 | 23 | 0.0 | 0.0 | 0.00 | 0.00 | 0.23 | 99 | 998.6 |
| 20260507083925 | 6 | 327 | 1.6 | 1.6 | 0.00 | 0.00 | 0.23 | 99 | 998.6 |
| 20260507083327 | 6 | 348 | 1.6 | 3.2 | 0.00 | 0.00 | 0.23 | 99 | 998.9 |
| 20260507082121 | 7 | 150 | 1.6 | 1.6 | 0.00 | 0.00 | 0.23 | 99 | 998.9 |
| 20260507081530 | 7 | 353 | 1.6 | 1.6 | 0.00 | 0.00 | 0.23 | 99 | 998.6 |
| 20260507080917 | 7 | 14 | 1.6 | 1.6 | 0.00 | 0.00 | 0.20 | 99 | 998.3 |
| 20260507080337 | 7 | 4 | 3.2 | 3.2 | 0.00 | 0.00 | 0.20 | 99 | 998.6 |
| 20260507075716 | 7 | 217 | 4.8 | 4.8 | 0.00 | 0.00 | 0.20 | 99 | 998.3 |